Location: Buckland
(65.9785°N, 161.1281°W)
Time: 14:57:36
(UTC+00:00)

Transit 4A - Pass Details

Date: 10 October 2022
Orbit: 871 x 972 km, 66.8° (Epoch: 29 November)

Event Time Altitude Azimuth Distance (km) Brightness Sun altitude
Exits shadow 09:57:18 29° 73° (ENE) 1,591 9.1 -30.4°
Drops below altitude 10° 09:59:59 10° 70° (ENE) 2,552 10.3 -30.5°
Sets 10:02:27 0° 70° (ENE) 3,484 11.0 -30.5°
